CZ-6A DEB, 56675

Orbit data source: Space-Track

CZ-6A DEB, 56675 is space debris in SSO originally from a launch on Fri, 11 Nov 2022 UTC launched from the Taiyaun Space Center, China (TSC). Debris objects in space refer to the collection of defunct objects orbiting the Earth. Examples of debris include non-operational satellites, rocket bodies, and fragments generated from explosions, collisions, or faulty payload assembly.

Loading next visibility...
Identifier
56675, 2022-151AHB
Orbit
SSO
Country
Flag of CNCN / PRC
Related business
Manufacturer
SAST
Mission
Spacecraft
Bus & Motor
Unknown
Mass
Unknown
Launch date (UTC)
2022-11-11 (3 years ago)
Launch vehicle
Unknown
Launch site
Taiyaun Space Center, China (TSC)
Object type
Payload
Rocket body
Debris
Shape & HBR
Unknown shape, 0.1 m
Radar Cross Section
Small (<0.1 m²)

Expand to show TLE details & history
Last TLE update: 23 hours ago

TLE from 23 hours ago
0 CZ-6A DEB
1 56675U 22151AHB 25349.97857016  .00000759  00000-0  44126-3 0  9997
2 56675  98.8762 351.8479 0078005  92.6586 268.3517 14.10084355141069
Epoch: 2025-12-15T23:29Z
TLE epoch observation values (Epoch: 2025-12-15T23:29:08.461Z)
Latitude
0.00001°
Longitude
-85.30673°
Altitude
864.043 km
Speed
7.419 km/s
True Right ascension
23h 27m 23s
True Declination
0° 00' 00"
Sunlit
Object was in daylight at epoch
Visualization orbit readout
Latitude
Unknown
Longitude
Unknown
Altitude
Unknown
Speed
Unknown
Apparent Right ascension
Unknown
Apparent Declination
Unknown
Sunlit
N/A
Visualization observer readout
Local Sidereal Time
21:33:46
Azimuth
Unknown
Elevation
Unknown
Doppler factor
Unknown
Orbital elements
Apogee altitude
912.695 km
Perigee altitude
799.831 km
Semi-major axis
7,234.4 km
Eccentricity
0.0078
Inclination
98.8762°
RAAN
351.8479°
Arg. of periapsis
92.6586°
True anomaly
267.45849°
Mean anomaly
268.3517°
Eccentric anomaly
267.90506°
Mean motion
3.52728 °/min
Orbital period
102.06 mins
BSTAR
0.00044126
Loading maneuver chart data...
Computing Atmospheric mass density...
Loading historical data...
Loading historical data...
Loading historical data...
Loading historical data...
Loading historical data...
Loading historical data...
Loading historical data...

Documentation

Showing up to 5 results
|